RH
2 2 3 6 11 8 5 8 28 77 44 62 100 100 100 100 100 98 90 99 97 97 100 100 98 100 100 100 99 98 98 98 97 95 79 56 48 44 44 50 47 40 35 30 25 26 21
2 3 3 9 14 8 6 9 44 96 99 100 100 100 100 93 94 100 99 91 100 99 100 100 99 93 98 100 99 99 100 97 94 97 89 64 53 51 53 56 53 47 41 34 30 28 26
3 3 4 16 20 13 12 12 21 92 100 100 100 100 100 97 90 95 100 90 100 100 100 100 100 100 100 100 100 100 100 97 99 97 98 90 74 67 70 71 70 65 53 45 39 36 34
3 3 6 24 32 19 22 32 13 56 93 100 100 99 99 95 96 100 100 100 92 98 100 100 100 99 100 100 100 100 100 100 96 92 100 94 94 84 74 72 73 65 55 49 44 39 32
3 4 14 33 42 22 18 27 36 31 40 70 83 89 82 77 68 88 100 96 95 74 79 92 100 100 98 99 99 100 100 99 93 99 100 93 78 79 81 73 68 61 51 44 36 29 24
4 7 27 48 48 26 25 31 30 41 44 43 32 41 70 82 52 59 100 95 96 73 66 57 53 94 96 85 100 100 100 91 85 92 91 83 86 73 62 62 54 48 39 33 26 22 19
6 9 26 45 56 41 29 38 32 39 40 60 72 74 34 66 84 48 67 91 98 84 74 57 64 50 71 97 97 100 98 92 83 86 87 91 78 58 59 55 45 35 28 21 20 16 12
12 10 24 59 72 51 34 45 54 52 40 32 66 89 90 41 41 65 56 73 90 88 69 59 51 38 30 38 79 100 98 98 82 86 92 82 65 57 48 35 26 20 18 22 20 17 13
17 17 15 39 85 78 53 49 64 78 76 53 30 51 65 52 42 47 60 78 68 73 86 64 43 29 24 32 33 98 82 84 85 90 78 64 55 42 31 26 26 23 20 16 16 27 43
11 21 20 29 64 95 74 58 59 75 95 71 57 57 58 64 37 58 65 61 47 48 29 29 27 25 33 77 72 88 87 93 88 79 72 50 39 32 28 23 24 23 20 31 45 53 55
17 18 20 32 49 68 86 83 64 69 85 87 68 53 49 52 76 63 46 42 32 41 87 100 99 69 82 100 100 100 100 92 87 58 42 33 27 24 26 28 24 24 38 55 92 83 60
30 14 26 23 41 56 80 76 89 75 85 82 80 66 47 51 41 51 67 67 84 96 97 100 100 100 100 100 100 99 86 65 44 31 31 35 36 34 31 28 29 34 59 80 69 61 77
40 21 17 20 18 25 43 44 35 82 88 96 84 77 64 66 66 73 59 65 77 67 87 95 99 99 98 96 76 69 53 38 41 64 47 35 40 46 42 35 40 62 76 87 86 98 96
40 34 16 21 20 19 24 24 17 22 71 100 80 73 65 58 62 63 73 78 60 75 82 83 70 52 50 56 55 40 51 70 72 71 48 36 35 37 40 48 65 72 88 85 76 91 98
69 38 24 16 23 16 11 10 10 10 24 76 64 64 79 58 63 66 69 56 49 53 56 77 88 88 62 49 52 80 88 100 92 63 65 54 49 53 63 64 75 86 86 90 95 97 98
84 48 37 19 19 14 10 7 6 6 12 40 61 43 42 48 60 85 69 39 67 88 95 99 83 80 73 67 69 68 79 100 84 63 60 58 62 70 74 80 85 84 89 94 95 98 98
83 77 38 37 20 20 10 8 6 5 8 14 56 35 27 33 45 47 32 39 64 84 94 92 90 90 89 86 88 91 90 83 80 77 76 87 94 87 88 94 95 96 98 97 98 98 97
89 84 47 37 28 16 19 7 8 5 4 8 25 35 27 33 46 60 46 52 51 61 66 66 74 83 88 89 89 88 83 88 88 88 94 100 98 100 100 100 92 88 93 99 99 99 94
89 86 76 33 33 23 13 15 6 8 5 4 8 22 28 24 25 41 38 35 33 38 47 47 68 80 89 99 95 96 92 89 91 98 100 99 99 100 100 100 85 91 92 96 98 98 99
92 88 83 53 32 28 23 15 9 6 8 5 5 9 20 22 20 21 24 24 22 22 30 41 65 73 77 91 86 74 74 92 92 85 75 83 97 95 99 100 99 94 98 89 97 97 99
80 85 83 76 36 30 26 24 14 6 6 9 5 4 7 14 18 19 20 18 18 19 24 38 51 62 65 69 66 57 51 52 52 51 53 61 64 70 76 96 98 98 100 99 100 99 98
60 66 82 81 63 33 26 26 24 13 6 7 8 6 5 8 18 16 18 18 17 16 16 18 26 34 40 43 47 50 45 42 40 41 40 40 45 49 41 43 83 58 89 98 99 94 85
62 51 64 79 73 45 30 26 24 17 12 4 8 9 7 6 9 15 15 15 14 12 12 12 16 20 26 31 34 42 44 46 42 38 35 29 29 28 29 29 28 29 30 38 34 24 21
72 64 48 80 75 64 35 28 24 23 13 10 5 7 9 7 7 8 9 10 11 10 10 11 13 16 17 22 24 30 34 38 38 37 34 26 22 20 19 19 20 19 22 25 23 21 16
68 65 48 55 81 75 50 30 26 21 21 10 8 5 6 10 8 7 7 9 9 8 8 9 10 12 14 18 21 24 28 32 32 32 30 27 19 17 14 14 14 13 14 16 15 18 19
66 71 51 52 86 82 65 40 31 23 19 15 10 10 6 6 8 10 9 8 7 8 8 7 7 9 12 12 13 16 19 20 23 24 26 27 26 22 21 20 17 17 17 15 14 21 22
64 77 92 60 78 87 77 59 36 30 22 18 13 10 12 10 5 7 8 11 10 9 8 8 7 7 6 7 7 7 8 10 12 13 10 13 17 16 14 13 13 13 13 13 10 14 16
49 49 67 57 83 96 90 72 54 35 30 20 14 13 10 10 13 9 6 7 8 10 10 12 11 11 10 8 7 6 6 6 6 6 6 6 6 6 6 6 6 7 8 8 9 10 9
47 43 47 46 88 91 96 92 70 52 38 30 16 16 14 12 9 10 14 11 6 7 8 8 11 11 10 11 11 12 12 11 9 8 7 8 8 7 7 6 6 6 7 6 6 6 6
Wind_Speed
63 68 74 80 81 85 89 69 49 32 17 40 32 26 30 26 31 27 18 24 29 30 33 38 35 38 38 42 36 42 42 48 49 46 43 42 41 40 41 40 41 43 42 42 43 43 47
64 70 75 80 78 86 92 68 31 27 21 12 23 30 30 26 22 23 22 18 21 26 28 33 36 37 35 37 41 39 38 40 42 40 40 40 39 38 38 40 41 41 40 41 43 47 47
66 72 78 79 79 88 88 79 31 15 11 4 8 22 28 26 20 17 21 18 19 23 37 35 32 33 38 36 34 40 32 33 33 35 37 39 38 37 38 40 40 41 40 41 44 48 48
66 72 75 78 79 82 85 85 69 13 8 4 7 12 13 16 17 20 16 19 18 18 18 25 34 32 29 36 33 34 26 24 29 33 33 33 33 33 35 36 37 38 39 40 43 46 48
65 69 71 74 76 75 77 81 73 70 16 20 18 17 17 15 20 19 14 19 20 20 13 9 11 16 15 18 25 23 23 25 25 27 28 29 27 27 29 30 33 35 36 38 41 46 48
63 66 67 68 70 69 70 74 72 65 59 61 17 30 24 23 24 17 15 20 22 23 20 13 8 8 9 13 19 17 20 24 23 26 25 24 22 25 26 27 30 33 35 37 42 47 49
62 64 65 67 64 64 64 68 65 66 63 58 52 56 23 28 27 28 17 18 23 25 19 11 8 6 9 10 15 18 20 19 20 19 19 20 22 23 24 27 29 32 35 39 43 47 49
60 62 64 64 63 60 60 61 64 65 61 60 57 51 51 29 26 31 27 22 18 16 13 14 11 7 12 9 15 16 19 19 19 17 18 20 20 22 25 27 30 32 35 36 35 40 42
59 62 64 63 62 58 56 56 57 58 64 56 55 59 56 52 16 29 28 24 21 19 15 3 9 15 11 13 20 20 15 19 16 16 16 17 20 22 25 27 27 29 31 27 25 22 20
63 62 63 64 63 59 52 52 52 54 57 60 52 52 53 57 47 24 23 21 20 10 6 10 11 13 14 13 17 21 19 15 16 15 16 19 21 20 20 20 18 23 17 14 13 17 19
66 59 62 63 63 60 56 49 49 49 51 52 52 48 46 47 49 44 27 19 19 25 20 17 13 14 22 14 16 22 25 17 15 14 14 13 12 11 11 14 13 14 8 9 11 17 14
66 61 59 61 63 62 59 52 45 43 45 47 46 44 40 40 39 39 36 31 25 22 18 19 21 19 15 11 14 17 14 12 9 6 3 4 7 9 9 6 6 7 8 12 12 13 14
64 62 56 60 61 63 62 59 52 41 39 43 42 38 35 34 31 33 30 28 25 22 23 23 20 19 16 16 16 15 13 13 10 7 2 4 4 4 1 2 5 7 9 10 10 10 12
60 63 61 55 58 60 61 61 59 50 37 35 37 35 28 33 32 29 28 22 24 27 25 22 19 17 17 16 17 17 15 11 7 6 6 6 4 4 0 2 4 8 9 8 9 14 13
59 61 60 54 54 56 58 60 60 58 39 29 32 34 25 28 30 28 25 26 31 30 28 24 23 20 19 20 19 19 16 16 14 12 10 7 5 2 2 4 6 8 8 8 11 8 10
57 56 60 58 49 52 54 56 56 56 48 29 28 33 32 27 28 20 20 30 31 27 26 24 22 23 22 20 15 12 15 14 17 15 11 9 5 3 3 4 5 6 7 6 6 7 8
53 53 54 58 55 47 48 49 51 52 50 34 22 28 29 31 31 30 25 27 27 28 27 26 24 21 18 17 17 16 14 18 18 15 11 8 5 5 4 4 5 5 6 7 6 6 5
48 51 49 52 54 50 44 44 47 48 48 40 23 24 24 26 29 26 26 28 29 29 25 22 22 23 23 21 21 17 19 20 18 13 12 11 8 8 7 5 6 7 8 10 12 11 16
45 45 47 45 50 50 47 41 42 45 44 42 30 19 20 22 25 23 24 25 24 23 21 20 21 22 24 21 20 21 20 19 16 16 18 18 17 15 14 11 9 10 9 9 16 20 20
42 41 43 42 43 47 47 42 37 38 40 40 37 22 19 19 20 20 20 21 23 24 22 20 21 21 22 22 21 21 20 19 19 20 21 21 22 23 21 19 13 11 9 8 16 20 17
43 40 37 39 38 41 44 44 37 33 35 38 38 35 31 21 20 22 19 17 19 23 24 22 21 21 22 22 20 19 20 18 19 19 19 20 20 23 23 20 16 16 18 18 14 10 12
44 41 37 35 35 33 38 40 42 31 29 32 32 33 32 24 15 17 16 16 17 19 20 21 21 21 21 18 16 15 14 16 16 16 18 17 18 18 17 15 13 16 13 12 8 7 9
42 41 37 32 34 30 30 35 36 35 25 24 27 29 29 27 20 11 13 14 17 19 18 17 17 15 13 11 10 9 7 7 8 8 10 11 10 9 9 9 9 8 8 7 8 8 8
40 44 37 32 26 28 25 28 32 34 33 22 21 23 23 22 19 18 14 16 14 14 16 14 11 8 7 4 3 2 1 2 3 5 7 6 6 5 4 3 3 3 3 4 4 5 7
40 41 40 34 24 23 21 21 26 29 31 27 17 18 19 19 18 17 14 13 15 14 11 11 11 8 5 4 5 6 7 9 10 12 12 11 9 7 8 9 9 9 12 11 11 12 12
34 38 39 37 28 21 22 17 18 23 25 27 22 13 14 16 14 14 13 13 10 11 11 8 6 7 10 11 12 11 14 16 17 17 19 19 20 19 19 20 21 21 21 20 21 21 21
31 33 35 37 30 20 19 19 14 15 21 24 23 23 12 10 12 13 13 13 10 7 7 6 6 3 3 4 7 9 13 17 17 21 21 23 24 25 29 30 28 29 27 27 29 27 25
32 28 33 41 34 22 15 18 15 12 14 19 20 19 23 15 9 10 12 12 11 10 8 3 2 3 4 5 6 7 6 7 8 11 12 12 15 13 15 15 15 16 18 18 17 16 16
31 31 32 33 33 30 16 15 17 14 11 11 14 17 16 18 18 12 10 12 12 12 13 12 8 5 4 5 6 7 10 11 13 12 14 14 16 17 18 19 17 15 15 15 14 15 16
Wind_Direction
357 360 355 353 351 352 351 350 344 353 323 237 216 228 244 256 254 256 258 250 242 235 231 230 222 236 236 236 232 231 235 234 231 231 234 237 240 245 250 253 255 258 260 262 262 263 264
1 3 358 357 356 1 4 359 6 23 25 75 223 241 235 245 249 242 237 237 231 222 216 215 217 213 205 220 215 227 237 235 232 230 232 236 241 246 250 253 255 256 258 260 262 264 264
3 5 2 358 1 7 12 15 3 30 66 141 195 244 234 226 248 238 222 205 218 189 192 196 201 210 202 203 214 226 223 228 229 228 234 237 240 244 252 255 257 258 258 261 264 267 270
5 9 2 1 6 12 20 21 24 333 331 352 245 238 236 237 224 197 192 200 205 196 180 160 160 174 189 199 212 210 225 222 228 229 228 235 238 243 251 255 257 259 261 262 267 269 269
7 8 5 4 7 14 16 19 25 33 317 288 302 273 263 247 234 214 194 189 201 183 167 160 173 157 186 220 216 197 201 207 214 218 224 231 240 245 252 254 257 259 261 264 267 269 272
6 8 7 7 8 12 16 16 24 29 34 44 2 279 267 245 236 221 187 179 192 175 160 171 175 221 209 230 227 206 209 202 207 215 224 229 235 245 250 253 257 261 264 268 270 273 277
7 8 8 8 9 12 12 16 25 28 32 30 34 37 28 234 222 219 201 197 175 183 171 172 195 201 205 226 229 197 195 199 203 207 220 230 235 247 255 256 259 263 268 270 276 279 281
8 8 9 8 8 12 13 19 24 26 30 30 31 29 30 30 216 212 196 187 176 172 172 168 181 225 227 240 231 199 203 204 209 222 225 231 245 251 252 258 265 270 274 280 286 286 285
7 8 9 10 9 10 13 18 24 26 29 30 31 34 37 34 62 188 193 164 165 154 155 218 259 276 246 241 212 194 190 203 211 217 225 236 243 250 260 265 273 278 281 285 277 270 289
9 8 10 10 9 8 11 12 20 25 28 29 30 34 40 48 58 106 165 179 148 157 293 256 214 224 200 192 195 198 196 191 198 213 224 238 250 259 267 274 280 277 283 264 279 288 282
11 12 10 9 10 7 9 13 12 18 24 30 34 37 44 54 59 72 104 154 153 147 137 123 136 143 171 140 176 184 185 192 201 217 236 242 255 265 253 274 272 270 251 271 287 302 297
10 12 10 12 10 9 7 11 13 12 19 27 31 39 51 58 66 76 85 101 114 119 119 114 113 118 138 149 152 144 142 167 186 172 168 246 272 264 258 261 239 246 275 297 300 291 301
10 10 13 11 14 11 8 8 13 13 13 18 27 33 46 60 69 65 73 83 93 92 98 99 101 109 120 122 127 138 144 136 125 116 147 230 163 137 135 259 254 271 306 306 301 331 321
8 11 12 13 13 13 11 9 10 16 17 19 23 28 55 61 64 71 73 82 85 91 92 94 93 98 106 116 121 120 111 106 108 105 111 107 108 47 207 269 300 308 316 322 308 324 341
8 9 11 14 14 13 15 13 13 12 22 34 31 43 60 64 67 67 77 84 87 92 93 91 90 92 97 103 106 108 96 91 88 96 83 76 61 45 355 311 307 310 326 306 324 341 356
8 9 8 13 15 15 17 18 16 15 15 35 46 52 56 69 65 66 87 86 80 80 83 84 87 92 93 95 96 90 96 74 81 77 72 61 46 359 343 320 327 346 338 326 358 4 10
7 7 8 8 14 15 17 21 20 20 18 23 58 67 76 77 78 81 73 75 78 74 81 88 91 86 81 82 84 86 75 79 82 78 72 71 50 43 31 24 14 23 52 31 30 12 47
5 5 7 7 9 16 15 18 24 25 26 22 46 82 81 76 79 81 81 79 79 79 77 75 76 76 78 86 81 79 81 83 76 72 67 66 64 76 95 94 60 61 42 46 43 79 104
3 3 4 5 7 11 17 16 21 28 28 32 34 68 96 86 86 89 78 75 71 69 74 81 79 82 84 82 84 81 78 76 69 70 72 73 73 87 94 78 78 73 59 57 90 98 99
1 1 3 0 4 5 14 16 17 22 31 31 38 51 77 112 95 90 83 69 67 75 76 82 85 85 86 86 82 77 71 66 63 63 65 63 54 67 76 78 76 76 71 87 103 84 78
356 357 358 2 1 2 5 15 15 15 24 34 35 44 61 102 106 102 92 73 76 81 80 86 85 86 84 82 78 71 67 65 57 56 56 59 58 54 55 53 63 70 90 107 108 79 72
348 355 354 356 357 1 360 8 16 13 13 30 33 38 51 62 99 87 90 87 86 85 82 81 81 80 78 73 69 69 61 56 50 46 44 44 46 49 50 57 53 57 67 104 106 73 73
346 350 351 352 356 352 359 1 9 18 12 17 32 34 40 52 65 72 73 89 98 95 87 80 81 80 76 70 67 57 47 42 35 34 24 30 41 46 48 50 49 44 52 51 61 52 32
337 342 346 345 347 349 352 359 359 10 16 5 19 30 34 40 50 64 82 93 94 96 107 106 95 98 96 103 80 47 340 278 290 300 318 332 352 4 5 22 25 347 314 330 340 334 335
331 332 341 337 337 343 343 354 355 2 5 17 4 18 19 31 34 43 52 75 95 93 99 124 149 158 182 213 261 252 278 275 273 269 274 274 268 278 274 285 293 295 289 291 288 293 293
327 323 333 334 329 332 342 338 355 352 2 9 20 3 9 9 18 28 39 48 53 80 83 89 114 179 215 223 237 254 264 267 276 280 278 273 277 279 280 281 278 282 280 280 275 282 288
323 320 325 325 325 329 328 329 330 351 347 357 6 20 355 349 354 4 5 15 29 51 70 67 50 62 158 203 238 252 259 269 276 282 280 276 274 279 281 280 277 278 278 278 276 277 277
311 315 318 317 319 323 314 321 317 323 346 347 345 6 14 8 332 332 337 342 346 344 334 345 70 45 7 343 320 305 300 292 288 304 306 308 306 303 293 291 289 280 273 280 277 273 266
294 302 311 310 310 316 309 302 318 309 316 331 331 338 359 8 15 360 321 308 311 316 319 317 312 286 282 278 286 297 301 300 294 302 296 301 297 301 298 301 297 295 293 285 270 253 258